When you browse on this site, cookies collect data to enhance your experience and personalize the content and advertising you see.
Visit our Privacy Policy to learn more. By continuing to use the site, you agree to this use of cookies and data.
  • en France
  • Liste des pays
  • À 7 jours
  • Température de l'eau
  • Carte satellitaire
  • Carte météo
  • Widgets météo
  • user-avatar
    Se connecter

    Météo par heure à Ulan Hot

    Ce jour, 18 Juillet, Jeudi

    Heure Température Précipitation Vent Pression Humidité
    00:00 +24°C° 0 mm 2 m/s 731 mmHg 63%
    01:00 +24°C° 0 mm 1 m/s 730 mmHg 66%
    02:00 +23°C° 0 mm 1 m/s 730 mmHg 71%
    03:00 +23°C° 0 mm 1 m/s 730 mmHg 73%
    04:00 +23°C° 0 mm 1 m/s 731 mmHg 75%
    05:00 +23°C° 0 mm 1 m/s 731 mmHg 78%
    06:00 +25°C° 0 mm 1 m/s 731 mmHg 72%
    07:00 +26°C° 0 mm 1 m/s 731 mmHg 66%
    08:00 +28°C° 0 mm 2 m/s 731 mmHg 59%
    09:00 +30°C° 0 mm 2 m/s 731 mmHg 54%
    10:00 +31°C° 0 mm 3 m/s 731 mmHg 48%
    11:00 +34°C° 0 mm 3 m/s 731 mmHg 43%
    12:00 +34°C° 0 mm 3 m/s 730 mmHg 41%
    13:00 +35°C° 0 mm 2 m/s 730 mmHg 38%
    14:00 +35°C° 0 mm 2 m/s 730 mmHg 37%
    15:00 +35°C° 0 mm 2 m/s 730 mmHg 37%
    16:00 +35°C° 0 mm 2 m/s 729 mmHg 38%
    17:00 +34°C° 0 mm 1 m/s 729 mmHg 38%
    18:00 +32°C° 0 mm 2 m/s 729 mmHg 45%
    19:00 +30°C° 0 mm 2 m/s 729 mmHg 52%
    20:00 +28°C° 0 mm 2 m/s 730 mmHg 59%
    21:00 +27°C° 0 mm 1 m/s 730 mmHg 60%
    22:00 +27°C° 0 mm 1 m/s 730 mmHg 61%
    23:00 +24°C° 0 mm 0 m/s 730 mmHg 62%

    Demain, 19 Juillet, Vendredi

    Heure Température Précipitation Vent Pression Humidité
    00:00 +24°C° 0 mm 0 m/s 730 mmHg 63%
    01:00 +23°C° 0 mm 0 m/s 730 mmHg 64%
    02:00 +25°C° 0 mm 1 m/s 730 mmHg 65%
    03:00 +25°C° 0 mm 1 m/s 730 mmHg 66%
    04:00 +23°C° 0 mm 0 m/s 730 mmHg 68%
    05:00 +23°C° 0 mm 0 m/s 730 mmHg 69%
    06:00 +26°C° 0 mm 1 m/s 730 mmHg 65%
    07:00 +28°C° 0 mm 1 m/s 730 mmHg 61%
    08:00 +29°C° 0 mm 2 m/s 730 mmHg 57%
    09:00 +31°C° 0 mm 3 m/s 730 mmHg 53%
    10:00 +33°C° 0 mm 3 m/s 729 mmHg 50%
    11:00 +35°C° 0 mm 4 m/s 729 mmHg 46%
    12:00 +35°C° 0 mm 4 m/s 729 mmHg 44%
    13:00 +36°C° 0 mm 5 m/s 729 mmHg 41%
    14:00 +37°C° 0 mm 5 m/s 728 mmHg 39%
    15:00 +37°C° 0 mm 4 m/s 728 mmHg 41%
    16:00 +37°C° 0 mm 3 m/s 728 mmHg 42%
    17:00 +37°C° 0 mm 3 m/s 727 mmHg 44%
    18:00 +35°C° 0 mm 3 m/s 727 mmHg 47%
    19:00 +33°C° 0 mm 4 m/s 727 mmHg 50%
    20:00 +30°C° 0 mm 5 m/s 727 mmHg 53%
    21:00 +30°C° 0 mm 5 m/s 727 mmHg 55%
    22:00 +29°C° 0 mm 5 m/s 727 mmHg 58%
    23:00 +28°C° 0 mm 6 m/s 727 mmHg 61%

    Après-demain, 20 Juillet, Samedi

    Heure Température Précipitation Vent Pression Humidité
    00:00 +28°C° 0 mm 5 m/s 727 mmHg 65%
    01:00 +28°C° 0 mm 5 m/s 727 mmHg 68%
    02:00 +27°C° 0 mm 5 m/s 727 mmHg 72%
    03:00 +26°C° 0 mm 4 m/s 727 mmHg 75%
    04:00 +26°C° 0 mm 4 m/s 726 mmHg 77%
    05:00 +25°C° 0 mm 4 m/s 726 mmHg 80%
    06:00 +26°C° 0.1 mm 4 m/s 726 mmHg 77%
    07:00 +27°C° 0.1 mm 4 m/s 727 mmHg 74%
    08:00 +27°C° 0.1 mm 4 m/s 727 mmHg 70%
    09:00 +28°C° 0.5 mm 4 m/s 726 mmHg 69%
    10:00 +29°C° 0.5 mm 4 m/s 726 mmHg 67%
    11:00 +29°C° 0.5 mm 5 m/s 726 mmHg 66%
    12:00 +30°C° 0 mm 5 m/s 726 mmHg 63%
    13:00 +32°C° 0 mm 4 m/s 725 mmHg 60%
    14:00 +33°C° 0 mm 4 m/s 725 mmHg 57%
    15:00 +33°C° 0.1 mm 5 m/s 724 mmHg 58%
    16:00 +33°C° 0.1 mm 5 m/s 724 mmHg 59%
    17:00 +32°C° 0.1 mm 6 m/s 724 mmHg 60%
    18:00 +30°C° 0.8 mm 5 m/s 724 mmHg 66%
    19:00 +28°C° 0.8 mm 4 m/s 724 mmHg 73%
    20:00 +26°C° 0.8 mm 3 m/s 724 mmHg 79%
    21:00 +26°C° 0.6 mm 3 m/s 724 mmHg 80%
    22:00 +25°C° 0.6 mm 3 m/s 724 mmHg 81%
    23:00 +25°C° 0.6 mm 3 m/s 724 mmHg 82%

    21 Juillet, Dimanche

    Heure Température Précipitation Vent Pression Humidité
    00:00 +25°C° 0.2 mm 3 m/s 724 mmHg 83%
    01:00 +25°C° 0.2 mm 3 m/s 724 mmHg 83%
    02:00 +25°C° 0.2 mm 3 m/s 724 mmHg 84%
    03:00 +24°C° 0 mm 3 m/s 723 mmHg 84%
    04:00 +24°C° 0 mm 2 m/s 723 mmHg 84%
    05:00 +23°C° 0 mm 2 m/s 723 mmHg 85%
    06:00 +24°C° 0 mm 3 m/s 723 mmHg 77%
    07:00 +26°C° 0 mm 5 m/s 723 mmHg 70%
    08:00 +27°C° 0 mm 6 m/s 724 mmHg 63%
    09:00 +28°C° 0 mm 6 m/s 724 mmHg 61%
    10:00 +28°C° 0 mm 7 m/s 724 mmHg 59%
    11:00 +29°C° 0 mm 7 m/s 724 mmHg 57%
    12:00 +30°C° 0.1 mm 7 m/s 724 mmHg 55%
    13:00 +30°C° 0.1 mm 6 m/s 724 mmHg 53%
    14:00 +32°C° 0.1 mm 5 m/s 724 mmHg 51%
    15:00 +32°C° 0 mm 5 m/s 724 mmHg 51%
    16:00 +32°C° 0 mm 4 m/s 724 mmHg 50%
    17:00 +33°C° 0 mm 4 m/s 724 mmHg 50%
    18:00 +30°C° 0 mm 3 m/s 724 mmHg 53%
    19:00 +29°C° 0 mm 2 m/s 724 mmHg 55%
    20:00 +27°C° 0 mm 2 m/s 724 mmHg 58%
    21:00 +27°C° 0 mm 2 m/s 724 mmHg 58%
    22:00 +27°C° 0 mm 2 m/s 724 mmHg 59%
    23:00 +26°C° 0 mm 2 m/s 725 mmHg 59%

    22 Juillet, Lundi

    Heure Température Précipitation Vent Pression Humidité
    00:00 +26°C° 0 mm 3 m/s 724 mmHg 61%
    01:00 +25°C° 0 mm 4 m/s 724 mmHg 62%
    02:00 +23°C° 0 mm 5 m/s 724 mmHg 64%
    03:00 +22°C° 0 mm 5 m/s 724 mmHg 67%
    04:00 +21°C° 0 mm 5 m/s 724 mmHg 70%
    05:00 +20°C° 0 mm 5 m/s 724 mmHg 74%
    06:00 +22°C° 0 mm 6 m/s 724 mmHg 70%
    07:00 +24°C° 0 mm 7 m/s 724 mmHg 66%
    08:00 +26°C° 0 mm 9 m/s 725 mmHg 62%
    09:00 +28°C° 0 mm 8 m/s 725 mmHg 58%
    10:00 +29°C° 0 mm 8 m/s 725 mmHg 54%
    11:00 +32°C° 0 mm 7 m/s 725 mmHg 50%
    12:00 +32°C° 0 mm 7 m/s 725 mmHg 50%
    13:00 +32°C° 0 mm 7 m/s 724 mmHg 49%
    14:00 +33°C° 0 mm 7 m/s 724 mmHg 48%
    15:00 +32°C° 0 mm 6 m/s 724 mmHg 50%
    16:00 +32°C° 0 mm 6 m/s 724 mmHg 51%
    17:00 +32°C° 0 mm 6 m/s 724 mmHg 52%
    18:00 +29°C° 0 mm 5 m/s 724 mmHg 56%
    19:00 +27°C° 0 mm 5 m/s 724 mmHg 60%
    20:00 +26°C° 0 mm 4 m/s 725 mmHg 64%
    21:00 +25°C° 0 mm 4 m/s 725 mmHg 66%
    22:00 +24°C° 0 mm 3 m/s 725 mmHg 68%
    23:00 +24°C° 0 mm 3 m/s 725 mmHg 70%

    23 Juillet, Mardi

    Heure Température Précipitation Vent Pression Humidité
    00:00 +22°C° 0 mm 3 m/s 725 mmHg 71%
    01:00 +22°C° 0 mm 3 m/s 725 mmHg 72%
    02:00 +21°C° 0 mm 2 m/s 725 mmHg 73%
    03:00 +21°C° 0 mm 3 m/s 726 mmHg 74%
    04:00 +21°C° 0 mm 3 m/s 726 mmHg 75%
    05:00 +21°C° 0 mm 3 m/s 726 mmHg 76%
    06:00 +24°C° 0 mm 2 m/s 726 mmHg 72%
    07:00 +25°C° 0 mm 2 m/s 726 mmHg 68%
    08:00 +26°C° 0 mm 1 m/s 727 mmHg 64%
    09:00 +27°C° 0 mm 2 m/s 726 mmHg 63%
    10:00 +27°C° 0 mm 2 m/s 726 mmHg 62%
    11:00 +28°C° 0 mm 3 m/s 726 mmHg 62%
    12:00 +27°C° 0.1 mm 4 m/s 726 mmHg 66%
    13:00 +26°C° 0.1 mm 5 m/s 725 mmHg 70%
    14:00 +24°C° 0.1 mm 6 m/s 725 mmHg 74%
    15:00 +26°C° 0 mm 5 m/s 725 mmHg 72%
    16:00 +26°C° 0 mm 5 m/s 725 mmHg 69%
    17:00 +27°C° 0 mm 5 m/s 725 mmHg 67%
    18:00 +26°C° 0.3 mm 4 m/s 725 mmHg 73%
    19:00 +23°C° 0.3 mm 4 m/s 725 mmHg 79%
    20:00 +22°C° 0.3 mm 3 m/s 725 mmHg 85%
    21:00 +22°C° 0.1 mm 3 m/s 725 mmHg 86%
    22:00 +21°C° 0.1 mm 3 m/s 725 mmHg 87%
    23:00 +20°C° 0.1 mm 3 m/s 725 mmHg 88%
    Voir plus